[[{"header":{"parameterUnit":"m.s-1","parameterCategory":1,"la1":30.2991,"la2":30.254,"lo1":-89.0895,"lo2":-89.0444,"dy":0.0017,"dx":0.0017,"nx":28,"ny":28,"refTime":"2025-07-18T09:00:00:Z","depth":0,"parameterNumber":2,"parameterNumberName":"U-component_of_WINDS"},"data":[0,0,0,0,0,0,0,0,0,0,0,0,0,0,0,0,0,0,0,0,0,0,0,0,0,0,0,0,0,0,0,0,0,0,0,0,0,0,0,0,0,0,0,0,0,0,0,0,0,0,0,0,0,0,0,0,0,0,3.6051,3.6053,0,3.6204,3.6206,3.6207,3.6172,3.6169,3.6166,3.6164,3.6322,3.6328,3.6335,0,0,0,0,0,0,0,0,0,0,0,0,0,3.5728,3.5734,3.6051,3.6053,3.6055,3.6203,3.6206,3.6208,3.6173,3.6169,3.6166,3.6162,3.6319,3.6328,3.6336,0,0,0,0,0,0,0,0,0,0,0,0,0,3.5873,3.5736,3.6051,3.6055,3.6057,3.6203,3.6206,3.6208,3.6173,3.6169,3.6165,3.6161,3.6317,3.6327,3.6337,3.6489,0,0,3.6369,3.6373,0,0,0,0,0,0,0,0,3.5865,3.5885,3.6053,3.6055,3.6057,3.6164,3.615,3.6302,3.6175,3.6129,3.6164,3.6158,3.6273,3.6287,3.6325,3.6496,3.6503,3.637,3.6376,3.638,3.6383,0,0,0,0,0,0,0,3.5855,3.5878,3.6111,3.6055,3.6058,3.6049,3.6065,3.6178,3.6224,3.6133,3.6131,3.6149,3.6274,3.6315,3.6328,3.6505,3.6369,3.6379,3.6385,3.6389,3.6804,3.6808,0,0,0,0,0,0,3.5843,3.587,3.6106,3.6116,3.5948,3.6059,3.6076,3.6135,3.6222,3.6232,3.6153,3.6147,3.6299,3.6316,3.6334,3.6514,3.638,3.639,3.6396,3.6799,3.6805,3.681,0,0,0,0,0,0,3.5836,3.5864,3.61,3.5992,3.6022,3.6069,3.6134,3.614,3.6181,3.6237,3.6245,3.6187,3.6297,3.6319,3.6449,3.6519,3.6395,3.6404,3.6793,3.6801,3.6807,3.6878,0,0,0,0,0,0,3.5827,3.5862,3.592,3.5994,3.6028,3.6214,3.6139,3.6146,3.6199,3.6193,3.6272,3.628,3.6295,3.6434,3.646,3.6531,3.6412,3.6787,3.6797,3.6805,3.6869,3.6886,3.6901,0,0,0,0,0,3.5815,3.5935,3.5924,3.5952,3.6102,3.6218,3.6237,3.6251,3.6205,3.6264,3.6299,3.6278,3.6508,3.6448,3.6476,3.6552,3.6783,3.6794,3.6805,3.6862,3.6883,3.6901,0,0,0,0,0,0,3.587,3.5945,3.5933,3.608,3.6143,3.6212,3.6286,3.6273,3.6351,3.6342,3.6356,3.6374,3.6506,3.6542,3.6474,3.6701,3.6639,3.6656,3.6673,3.6693,3.6709,3.6696,3.6421,0,0,0,0,0,3.5899,3.5987,3.6048,3.6172,3.6204,3.624,3.6291,3.6296,3.6361,3.6388,3.6433,3.6498,3.6584,3.6641,3.6724,3.6875,3.689,3.6941,3.6956,3.6969,3.6983,3.7063,3.7085,3.6845,3.6845,3.6845,0,0,3.596,3.6012,3.6067,3.6184,3.6233,3.6323,3.6262,3.6361,3.6427,3.6403,3.6528,3.6563,3.6636,3.6776,3.684,3.681,3.7053,3.6983,3.6993,3.7,3.7076,3.7099,3.7119,3.6853,3.6851,3.685,0,0,3.6117,3.6167,3.6273,3.6323,3.6397,3.642,3.6445,3.6516,3.6538,3.6663,3.6646,3.6725,3.6874,3.6926,3.6972,3.7145,3.7127,3.7171,3.7254,3.7331,3.735,3.7366,3.7425,3.7447,3.7185,3.7186,3.7186,0,3.6184,3.6319,3.6331,3.643,3.6481,3.6461,3.6569,3.6617,3.6715,3.675,3.6715,3.6899,3.6947,3.7098,3.7139,3.7178,3.7206,3.7162,3.7346,3.7363,3.7379,3.7435,3.7458,3.719,3.719,3.7189,3.7189,0,3.6396,3.649,3.6567,3.666,3.672,3.6823,3.6849,3.6908,3.6907,3.6933,3.7059,3.7116,3.7208,3.7244,3.7246,3.7394,3.7373,3.7342,3.7279,3.7406,3.7459,3.7481,3.7197,3.7195,3.7194,3.7193,0,0,3.6593,3.6689,3.6717,3.6757,3.6836,3.6909,3.701,3.7099,3.7148,3.7216,3.73,3.7425,3.7396,3.7448,3.7454,3.7522,3.7652,3.7482,3.7484,3.751,3.7816,3.7837,3.7862,3.7641,3.7645,3.7648,3.7809,0,3.6756,3.6933,3.6945,3.7105,3.719,3.7171,3.7259,3.7317,3.7343,3.7418,3.7448,3.7535,3.7491,3.7522,3.7588,3.7622,3.7713,3.7611,3.7718,3.7721,3.7698,3.789,3.7914,3.8063,3.783,3.7833,3.7836,0,3.6969,3.7041,3.7209,3.7273,3.7309,3.7388,3.7468,3.7541,3.7605,3.7619,3.7675,3.7672,3.7774,3.7708,3.7848,3.7778,3.7822,3.7845,3.7851,3.786,3.7785,3.7903,3.8111,3.8132,3.7869,3.7867,3.7864,0,3.7093,3.7232,3.7349,3.7385,3.7463,3.7518,3.7553,3.7613,3.7664,3.7735,3.7768,3.785,3.7895,3.7958,3.7976,3.7927,3.8115,3.8051,3.8128,3.8128,3.8168,3.8165,3.8384,3.82,3.8199,3.8199,3.8198,0,3.7272,3.7375,3.7405,3.7478,3.7591,3.7603,3.7716,3.7748,3.78,3.7877,3.7867,3.794,3.796,3.8036,3.805,3.8162,3.8183,3.8197,3.8199,3.8197,3.8195,3.8225,3.8214,3.8205,3.8204,3.8202,3.8201,0,3.7429,3.7454,3.758,3.7643,3.7661,3.7742,3.7795,3.7864,3.7887,3.7985,3.8009,3.8046,3.8135,3.8159,3.8266,3.8275,3.8406,3.84,3.8384,3.8383,3.8458,3.845,3.8703,3.8735,3.8532,3.8534,3.8536,0,3.7541,3.7619,3.7689,3.7739,3.7776,3.7858,3.791,3.7924,3.7978,3.8055,3.8114,3.8201,3.8271,3.8413,3.845,3.853,3.8525,3.8608,3.8537,3.8531,3.8523,3.8517,3.8524,3.8621,3.8623,3.8625,3.8626,0,3.7736,3.7743,3.7818,3.7896,3.7958,3.8021,3.8081,3.8123,3.8145,3.8206,3.8296,3.835,3.8457,3.8543,3.8624,3.8659,3.8646,3.8648,3.867,3.8667,3.8654,3.8659,3.8418,3.8642,3.864,3.8639,3.8638,3.8638,3.7873,3.794,3.7998,3.8081,3.8127,3.8183,3.8249,3.828,3.8355,3.8442,3.8446,3.8542,3.8601,3.8708,3.8748,3.8823,3.8798,3.8831,3.8838,3.8846,3.885,3.8643,3.8839,3.8838,3.8838,3.8837,3.8837,0,3.8064,3.81,3.8176,3.8259,3.8324,3.8305,3.8369,3.8424,3.8509,3.8565,3.8633,3.8734,3.8816,3.8858,3.8939,3.8991,3.8987,3.9012,3.9007,3.9015,3.887,3.8841,3.9014,3.9014,3.9014,3.9014,3.9014,3.9013,3.8172,3.8284,3.8298,3.8431,3.8467,3.856,3.8598,3.8648,3.8692,3.8805,3.8873,3.8899,3.8949,3.9033,3.9107,3.9117,3.9146,3.9174,3.9181,3.9044,3.9026,3.9009,3.8982,3.9181,3.9181,3.932,3.9321,3.9322]},{"header":{"parameterUnit":"m.s-1","parameterCategory":1,"la1":30.2991,"la2":30.254,"lo1":-89.0895,"lo2":-89.0444,"dy":0.0017,"dx":0.0017,"nx":28,"ny":28,"refTime":"2025-07-18T09:00:00:Z","depth":0,"parameterNumber":3,"parameterNumberName":"V-component_of_WINDS"},"data":[0,0,0,0,0,0,0,0,0,0,0,0,0,0,0,0,0,0,0,0,0,0,0,0,0,0,0,0,0,0,0,0,0,0,0,0,0,0,0,0,0,0,0,0,0,0,0,0,0,0,0,0,0,0,0,0,0,0,2.5309,2.531,0,2.5411,2.5412,2.5413,2.5375,2.5372,2.537,2.5368,2.5475,2.548,2.5485,0,0,0,0,0,0,0,0,0,0,0,0,0,2.5083,2.5087,2.5309,2.5311,2.5312,2.5411,2.5412,2.5414,2.5375,2.5372,2.5369,2.5367,2.5474,2.548,2.5486,0,0,0,0,0,0,0,0,0,0,0,0,0,2.5183,2.5088,2.5309,2.5304,2.5305,2.5411,2.5412,2.5414,2.5376,2.5372,2.5369,2.5365,2.5472,2.5479,2.5487,2.5604,0,0,2.551,2.5513,0,0,0,0,0,0,0,0,2.5177,2.5191,2.5304,2.5305,2.5306,2.5376,2.5372,2.5478,2.5377,2.5349,2.5368,2.5364,2.5446,2.5455,2.5482,2.5609,2.5614,2.551,2.5515,2.5518,2.552,0,0,0,0,0,0,0,2.517,2.5186,2.535,2.5306,2.5307,2.5298,2.5308,2.5392,2.5416,2.5351,2.5349,2.5361,2.5445,2.5475,2.5484,2.5615,2.551,2.5517,2.5522,2.5525,2.584,2.5844,0,0,0,0,0,0,2.5162,2.5181,2.5346,2.5353,2.5231,2.5305,2.5316,2.5357,2.5415,2.542,2.5364,2.5359,2.5464,2.5475,2.5488,2.5627,2.5518,2.5525,2.553,2.5836,2.5841,2.5845,0,0,0,0,0,0,2.5158,2.5178,2.5342,2.5266,2.5286,2.5312,2.5359,2.5361,2.5391,2.5424,2.5429,2.5389,2.5461,2.5477,2.5574,2.563,2.5529,2.5536,2.5832,2.5838,2.5843,2.5908,0,0,0,0,0,0,2.5151,2.5176,2.5221,2.5267,2.529,2.5427,2.5362,2.5366,2.5403,2.5398,2.5449,2.5455,2.546,2.5563,2.5582,2.5639,2.5542,2.5827,2.5835,2.5841,2.5901,2.5915,2.5927,0,0,0,0,0,2.5143,2.5237,2.5223,2.5244,2.5347,2.543,2.5444,2.5447,2.5408,2.5453,2.5474,2.5453,2.5621,2.5574,2.5594,2.5654,2.5824,2.5832,2.5841,2.5895,2.5912,2.5927,0,0,0,0,0,0,2.5198,2.5243,2.5229,2.5339,2.5381,2.5424,2.5481,2.5465,2.552,2.5513,2.5515,2.5527,2.5627,2.565,2.5597,2.5769,2.5716,2.573,2.575,2.5767,2.578,2.5772,2.5548,0,0,0,0,0,2.5223,2.5286,2.5322,2.5416,2.5437,2.5456,2.5492,2.549,2.5534,2.5552,2.5581,2.5625,2.5687,2.5728,2.5788,2.5903,2.5913,2.5955,2.5968,2.5979,2.599,2.605,2.6069,2.5874,2.5873,2.5873,0,0,2.5275,2.5307,2.5347,2.5428,2.546,2.5525,2.5471,2.5543,2.5592,2.5564,2.5656,2.5679,2.5728,2.5834,2.5882,2.5857,2.6046,2.599,2.5998,2.6004,2.6061,2.608,2.6096,2.5879,2.5878,2.5877,0,0,2.5403,2.5434,2.5515,2.5547,2.5596,2.5607,2.5626,2.5671,2.5684,2.5776,2.5755,2.5813,2.5922,2.5957,2.5989,2.6126,2.6108,2.6146,2.6215,2.6274,2.6289,2.6303,2.6351,2.6368,2.6157,2.6157,2.6157,0,2.5463,2.556,2.5559,2.5632,2.5667,2.5642,2.5723,2.5756,2.5822,2.5847,2.5817,2.595,2.5981,2.6094,2.6127,2.6155,2.6176,2.614,2.6287,2.6301,2.6313,2.6359,2.6377,2.6161,2.6161,2.6161,2.616,0,2.5629,2.5697,2.5756,2.5818,2.586,2.5937,2.5948,2.599,2.5984,2.5998,2.6092,2.6128,2.6193,2.622,2.6216,2.6332,2.6314,2.6286,2.6233,2.6336,2.6379,2.6397,2.6167,2.6166,2.6165,2.6164,0,0,2.5797,2.5855,2.5877,2.5903,2.5953,2.6006,2.6081,2.6143,2.6179,2.6225,2.6287,2.6377,2.635,2.6387,2.6386,2.6438,2.6542,2.6403,2.6404,2.6427,2.667,2.669,2.6711,2.653,2.6533,2.6536,2.6665,0,2.5928,2.6059,2.6058,2.6179,2.6241,2.6216,2.6281,2.6319,2.6334,2.6388,2.6404,2.6467,2.6428,2.6449,2.6499,2.6519,2.6591,2.651,2.6588,2.6591,2.6576,2.6733,2.6756,2.6876,2.6682,2.6685,2.6687,0,2.6099,2.6148,2.6274,2.6312,2.6338,2.6397,2.6452,2.6505,2.6546,2.6553,2.6592,2.6582,2.6658,2.6602,2.6706,2.665,2.6682,2.6696,2.6701,2.6708,2.6645,2.6744,2.6915,2.6933,2.6714,2.6712,2.671,0,2.6207,2.6304,2.6392,2.6415,2.6463,2.6504,2.6526,2.6564,2.66,2.6649,2.6672,2.673,2.6761,2.6806,2.6811,2.677,2.6915,2.686,2.6922,2.6922,2.6954,2.6952,2.7132,2.6976,2.6976,2.6975,2.6975,0,2.6353,2.6431,2.644,2.6494,2.658,2.6579,2.6664,2.6682,2.6716,2.6772,2.6755,2.6809,2.6813,2.6868,2.6874,2.6958,2.6972,2.6979,2.698,2.6981,2.698,2.7002,2.6993,2.698,2.6979,2.6978,2.6977,0,2.6489,2.6498,2.6591,2.6627,2.6638,2.67,2.6731,2.6782,2.6793,2.6865,2.6882,2.69,2.6964,2.6973,2.7049,2.7052,2.7152,2.7145,2.7138,2.7137,2.7198,2.7192,2.7398,2.7424,2.7251,2.7253,2.7254,0,2.6581,2.664,2.6682,2.6717,2.6741,2.6799,2.6835,2.6836,2.6874,2.6924,2.6969,2.703,2.7079,2.7182,2.7202,2.7259,2.7252,2.732,2.7261,2.7259,2.7252,2.7248,2.7253,2.7332,2.7334,2.7335,2.7336,0,2.6744,2.6745,2.6797,2.685,2.6893,2.6936,2.6976,2.7006,2.7012,2.7055,2.7119,2.7157,2.7232,2.7293,2.7348,2.7371,2.7355,2.7355,2.7372,2.7373,2.7366,2.737,2.7168,2.735,2.7349,2.7348,2.7347,2.7346,2.686,2.691,2.6946,2.7004,2.7034,2.7071,2.7119,2.7136,2.7189,2.7249,2.7246,2.7316,2.7353,2.7426,2.7452,2.7506,2.7484,2.751,2.7516,2.7522,2.7527,2.7358,2.7517,2.7516,2.7516,2.7516,2.7516,0,2.7021,2.7042,2.7095,2.715,2.7195,2.7174,2.7216,2.7256,2.7317,2.7353,2.7401,2.7473,2.7531,2.7555,2.7611,2.765,2.7644,2.7665,2.7662,2.7667,2.7545,2.7523,2.7669,2.7669,2.7669,2.7669,2.7669,2.7669,2.7109,2.7192,2.7197,2.7294,2.7315,2.7382,2.7407,2.7441,2.7469,2.755,2.7598,2.7612,2.7643,2.7701,2.7753,2.7758,2.778,2.7804,2.7806,2.7691,2.7676,2.7661,2.7641,2.7809,2.7809,2.7924,2.7925,2.7925]}]]